Temperature
3 3 2 2 1 1 0 -1 -1 -2 -3 -4 -4 -5 -5 -6 -6 -6 -6 -6 -7 -7 -7 -7 -6 -6 -6 -5 -5 -5 -4 -4 -3 -2 -2 -1 0 1 2 3 5 7 9
3 2 2 1 0 -0 -1 -1 -2 -3 -4 -5 -5 -5 -6 -6 -6 -6 -7 -7 -7 -7 -7 -8 -7 -7 -6 -6 -6 -5 -5 -5 -4 -3 -3 -2 -1 1 2 3 4 5 7
2 2 1 0 -0 -1 -2 -2 -3 -4 -4 -5 -5 -6 -6 -6 -6 -7 -7 -7 -7 -7 -7 -8 -8 -8 -7 -7 -6 -6 -6 -6 -5 -4 -4 -3 -1 -0 1 2 3 4 6
2 1 1 0 -1 -1 -2 -3 -3 -4 -5 -6 -6 -6 -6 -6 -6 -7 -7 -7 -8 -8 -8 -8 -8 -8 -8 -8 -7 -7 -7 -6 -6 -5 -4 -3 -2 -1 0 2 3 4 5
2 1 1 -0 -1 -2 -2 -3 -4 -4 -5 -6 -6 -6 -6 -6 -6 -7 -7 -8 -8 -8 -8 -8 -8 -9 -9 -8 -8 -8 -7 -7 -6 -6 -5 -4 -3 -1 -0 1 2 3 4
2 1 1 -0 -1 -2 -3 -3 -4 -4 -5 -6 -7 -6 -6 -5 -6 -7 -7 -8 -8 -8 -8 -9 -9 -8 -9 -9 -9 -8 -8 -7 -7 -6 -5 -4 -3 -2 -1 1 2 3 4
2 1 1 -0 -1 -2 -3 -4 -4 -4 -5 -6 -7 -7 -6 -6 -6 -7 -8 -8 -8 -8 -9 -9 -9 -9 -9 -9 -9 -9 -9 -8 -7 -7 -6 -5 -4 -2 -1 0 1 3 4
2 1 1 -0 -1 -2 -2 -4 -4 -5 -5 -6 -8 -9 -9 -8 -8 -8 -8 -8 -8 -8 -9 -9 -9 -9 -9 -10 -9 -9 -9 -9 -8 -7 -6 -5 -4 -3 -2 -0 1 2 3
2 1 1 -0 -1 -2 -2 -3 -4 -5 -6 -6 -8 -9 -10 -11 -11 -9 -8 -9 -9 -9 -9 -9 -9 -10 -10 -10 -10 -9 -9 -9 -8 -7 -6 -5 -4 -3 -2 -1 1 2 3
2 1 0 -0 -1 -2 -2 -3 -4 -5 -6 -6 -7 -8 -9 -11 -12 -11 -10 -9 -10 -10 -9 -10 -10 -10 -10 -10 -10 -10 -10 -9 -8 -7 -7 -6 -5 -3 -2 -1 0 2 3
2 1 0 -0 -1 -2 -3 -3 -4 -5 -6 -7 -8 -8 -9 -10 -10 -12 -12 -10 -10 -10 -10 -10 -10 -10 -10 -10 -10 -10 -10 -9 -9 -8 -7 -6 -5 -4 -3 -1 0 1 2
2 1 0 -0 -1 -2 -3 -3 -4 -5 -6 -7 -8 -8 -9 -10 -10 -11 -12 -11 -11 -11 -11 -11 -11 -10 -10 -10 -10 -11 -10 -10 -9 -8 -8 -7 -6 -5 -4 -2 -1 1 2
2 1 0 -0 -1 -2 -3 -4 -4 -5 -6 -7 -7 -8 -9 -9 -9 -10 -11 -11 -11 -11 -11 -11 -11 -11 -11 -11 -11 -11 -11 -10 -10 -9 -8 -8 -7 -6 -5 -4 -2 -1 1
2 1 0 -1 -1 -2 -3 -4 -4 -5 -6 -7 -7 -8 -8 -9 -9 -9 -10 -11 -12 -11 -11 -11 -11 -11 -11 -11 -11 -11 -11 -10 -10 -9 -9 -8 -7 -7 -6 -4 -3 -2 -1
2 1 0 -1 -1 -2 -3 -4 -4 -5 -6 -6 -7 -8 -8 -8 -9 -9 -9 -10 -12 -12 -11 -11 -11 -11 -11 -11 -10 -11 -10 -10 -10 -10 -9 -9 -8 -7 -6 -5 -4 -3 -2
2 1 0 -1 -1 -2 -3 -4 -4 -5 -6 -6 -7 -8 -8 -8 -8 -9 -9 -10 -11 -12 -12 -11 -12 -11 -11 -11 -11 -11 -10 -11 -10 -10 -10 -9 -8 -7 -6 -5 -5 -4 -3
1 1 0 -1 -1 -2 -3 -4 -4 -5 -5 -6 -7 -8 -8 -8 -9 -9 -9 -10 -11 -11 -12 -12 -12 -11 -11 -11 -10 -10 -10 -10 -10 -10 -10 -9 -9 -8 -7 -6 -5 -4 -3
1 1 -0 -1 -1 -2 -3 -3 -4 -4 -5 -6 -7 -8 -8 -8 -8 -9 -9 -10 -11 -11 -12 -12 -12 -11 -11 -11 -11 -11 -11 -11 -11 -10 -10 -9 -9 -8 -7 -6 -5 -4 -4
1 0 -0 -1 -1 -2 -3 -3 -4 -4 -5 -6 -7 -8 -8 -8 -9 -9 -9 -10 -10 -11 -11 -11 -12 -11 -11 -11 -11 -11 -11 -11 -11 -11 -11 -10 -9 -8 -7 -6 -5 -5 -4
1 0 -0 -1 -1 -2 -3 -3 -4 -4 -5 -6 -7 -8 -8 -8 -9 -9 -9 -10 -10 -10 -11 -11 -11 -11 -11 -11 -11 -11 -11 -11 -11 -11 -11 -10 -10 -9 -8 -7 -6 -5 -4
1 0 -1 -1 -2 -2 -2 -3 -4 -5 -5 -6 -7 -8 -8 -9 -9 -9 -9 -10 -10 -10 -10 -10 -11 -11 -11 -11 -11 -11 -12 -12 -12 -12 -11 -10 -10 -9 -7 -6 -5 -5 -4
1 -0 -1 -1 -2 -2 -3 -3 -4 -5 -6 -6 -7 -8 -8 -9 -9 -9 -10 -10 -10 -9 -9 -10 -10 -10 -11 -11 -11 -12 -12 -12 -12 -12 -11 -11 -10 -9 -8 -7 -5 -4 -4
0 -0 -1 -1 -2 -2 -3 -3 -4 -6 -6 -7 -7 -8 -8 -9 -9 -9 -9 -9 -9 -9 -10 -10 -11 -11 -11 -11 -12 -12 -12 -12 -12 -11 -12 -11 -10 -9 -8 -7 -6 -5 -4
0 -0 -1 -1 -2 -2 -3 -4 -4 -5 -6 -6 -7 -8 -8 -9 -9 -9 -9 -9 -9 -9 -10 -11 -11 -11 -11 -11 -11 -11 -11 -11 -12 -11 -11 -11 -10 -9 -8 -7 -5 -5 -4
0 -0 -1 -2 -2 -3 -3 -4 -4 -5 -5 -6 -7 -8 -8 -9 -9 -9 -9 -9 -9 -10 -10 -11 -11 -12 -12 -12 -12 -12 -12 -12 -12 -12 -12 -11 -10 -9 -7 -6 -5 -4 -3
-0 -1 -1 -2 -2 -3 -3 -4 -4 -5 -5 -6 -7 -7 -8 -9 -9 -9 -9 -9 -10 -10 -10 -11 -11 -11 -12 -12 -13 -13 -13 -13 -13 -12 -12 -11 -10 -9 -7 -5 -4 -4 -3
Wind_Speed
6 4 3 4 5 5 6 7 8 10 10 12 13 13 16 18 18 17 16 20 21 22 24 26 28 29 31 32 33 34 35 35 36 36 37 37 37 37 37 36 35 34 33
8 6 3 1 2 3 5 6 8 9 10 12 13 15 17 18 17 18 18 18 19 21 22 24 27 29 31 32 33 34 35 36 37 38 38 38 38 38 38 37 36 36 34
11 9 6 5 6 6 7 8 10 9 9 9 10 14 15 16 16 18 18 17 17 18 21 24 26 28 30 32 34 35 36 37 37 38 38 39 39 39 39 38 37 37 35
13 11 9 8 9 8 8 8 8 4 5 5 6 10 13 14 16 18 17 17 17 16 19 23 25 28 30 32 34 35 36 37 37 38 38 39 39 39 39 38 38 37 36
16 14 12 11 10 9 9 8 5 4 5 6 7 7 9 11 14 16 15 16 16 17 18 20 24 27 30 32 34 35 36 37 38 38 38 39 40 40 39 39 38 38 37
18 16 13 13 11 8 6 6 5 5 5 6 8 9 8 11 13 12 12 13 15 17 18 19 21 23 28 31 33 35 36 37 38 38 39 39 39 40 39 39 39 38 37
19 17 13 12 11 7 6 6 4 5 5 4 4 6 8 9 9 7 10 10 13 16 18 19 20 21 23 28 31 34 36 37 38 38 38 39 39 39 39 38 38 38 37
19 16 15 11 11 7 6 6 5 3 4 3 3 4 5 4 4 8 7 7 9 14 15 19 20 22 23 23 27 33 35 37 37 38 38 39 38 38 38 38 37 37 36
20 18 16 14 12 9 7 7 7 6 5 4 4 3 3 5 7 5 7 8 8 7 11 17 20 22 23 24 26 29 33 36 37 38 39 39 37 37 37 36 36 36 35
19 19 18 16 13 11 7 7 7 6 6 5 4 5 7 6 5 7 5 5 8 10 10 14 18 21 24 24 26 30 34 36 37 37 38 38 37 36 34 34 34 34 33
17 18 18 16 13 11 10 9 6 7 6 6 5 5 7 7 8 8 14 13 8 7 9 9 14 19 23 24 24 27 33 35 36 37 37 37 36 35 33 31 30 30 29
9 15 16 16 14 12 11 10 9 8 8 8 8 7 6 7 7 8 11 17 18 12 9 8 10 15 21 23 25 30 33 34 35 36 36 35 34 33 31 30 28 26 25
9 12 14 13 12 14 14 13 8 9 9 9 9 9 9 10 9 10 13 17 20 18 10 9 10 15 19 21 22 30 31 33 34 34 35 34 33 32 31 29 28 26 23
12 10 14 14 14 14 14 12 8 9 8 10 11 10 10 11 10 11 13 15 19 21 15 10 7 9 16 19 23 30 26 31 33 34 34 34 33 31 31 29 28 26 23
10 12 13 12 13 13 13 10 8 9 8 10 11 11 11 11 11 11 12 13 15 20 23 13 7 8 13 17 24 23 22 29 33 34 34 33 32 31 30 29 27 26 24
11 11 12 11 11 11 11 9 9 9 10 11 10 11 12 11 11 12 13 13 14 17 22 14 12 11 13 17 25 23 22 31 32 33 33 32 31 30 30 28 27 25 24
14 13 13 12 12 11 10 10 10 10 11 12 11 12 15 14 13 13 13 13 14 15 20 19 14 13 14 16 16 18 21 20 22 30 31 31 31 30 29 29 28 26 24
14 14 13 12 12 11 11 11 12 11 11 13 13 13 15 13 15 14 13 15 15 15 18 22 17 14 16 16 15 15 15 17 16 26 30 31 31 30 29 29 28 26 24
15 14 13 13 12 11 11 11 11 12 12 13 13 14 15 15 16 14 15 15 15 15 15 18 19 16 15 14 15 15 16 13 16 21 26 27 28 29 28 28 28 27 25
15 15 14 13 12 11 11 11 11 11 12 13 14 15 15 15 16 15 15 16 15 16 16 16 18 17 15 13 12 13 14 12 13 14 18 21 25 27 27 27 27 26 25
16 14 13 12 11 10 10 11 11 12 13 14 14 14 15 17 20 18 16 13 13 14 14 15 16 15 14 12 12 12 14 13 12 12 12 13 13 12 13 19 22 24 24
13 13 13 12 12 10 16 19 16 12 12 13 13 12 12 15 19 24 27 27 24 19 16 15 15 15 16 14 13 13 13 14 14 7 9 12 10 11 11 11 19 24 25
14 13 13 12 13 14 19 20 21 13 11 10 10 10 11 11 17 11 21 26 24 25 24 17 16 16 17 15 16 17 16 16 15 10 10 14 11 12 11 14 24 25 25
13 13 13 13 12 14 18 19 20 13 9 9 9 10 11 11 13 16 16 15 11 12 16 14 13 16 15 15 15 16 15 14 14 12 11 12 10 11 12 11 21 25 26
13 14 12 13 13 13 17 18 18 8 8 9 10 10 11 11 20 25 18 12 10 11 18 21 22 22 26 25 20 12 10 10 12 10 7 8 8 9 10 11 15 24 26
14 13 12 12 13 12 15 17 17 7 8 9 8 9 14 15 21 23 14 10 12 14 11 10 14 18 15 16 20 11 8 9 9 7 5 6 6 5 5 5 7 9 14
Wind_Direction
154 132 87 46 25 9 355 341 331 324 317 312 307 301 300 301 299 299 301 312 317 319 319 319 318 317 316 314 313 311 309 305 301 296 292 288 283 281 279 277 277 276 276
170 163 159 178 295 294 290 292 292 292 289 289 287 288 290 291 289 293 296 302 311 316 318 317 316 315 313 312 311 310 308 305 300 296 291 288 283 279 277 274 273 273 272
184 181 186 212 240 255 262 271 278 278 273 276 276 281 281 279 282 288 292 292 295 308 315 316 314 312 311 311 310 309 306 304 300 296 290 286 283 277 275 272 269 268 268
194 190 197 217 234 242 249 256 262 260 262 268 270 275 275 274 279 284 286 286 291 296 304 311 312 312 311 309 307 306 305 303 299 294 290 285 282 277 272 270 267 265 264
200 198 205 220 229 231 239 250 252 235 259 270 272 267 262 265 274 280 280 284 287 291 294 302 308 310 309 306 305 305 303 301 299 294 290 285 281 278 273 268 266 263 261
203 202 208 220 223 221 231 237 248 247 245 261 280 280 269 265 266 265 269 279 284 289 294 294 296 300 304 305 304 303 302 300 297 294 290 286 282 278 272 268 264 261 258
203 201 205 213 215 213 221 224 235 260 261 251 273 282 271 257 250 251 257 266 275 282 287 290 292 293 296 299 302 301 299 298 297 294 291 287 282 278 272 268 264 260 256
203 203 205 208 212 213 221 223 215 236 258 259 268 307 313 297 255 249 248 259 267 275 282 289 290 291 290 292 294 297 297 296 295 294 292 289 284 278 272 267 264 260 254
202 203 205 208 211 209 218 222 213 219 244 252 208 232 287 295 309 261 238 251 256 261 273 282 285 287 290 292 291 293 292 293 294 293 292 291 287 281 273 268 264 260 253
201 204 207 209 211 213 216 224 220 214 223 251 236 221 224 239 283 302 277 249 251 265 268 282 285 286 286 287 287 290 292 292 293 293 293 293 290 286 279 270 266 260 254
202 204 207 209 212 216 219 222 223 220 220 235 237 232 239 246 238 261 291 295 280 256 260 265 276 280 283 283 283 285 289 291 294 295 296 296 293 289 285 280 272 263 256
203 207 208 209 213 217 221 224 225 227 230 235 242 238 238 243 249 252 274 291 295 287 263 263 270 275 278 280 281 287 292 294 295 297 298 298 297 294 290 289 286 276 264
205 208 207 208 213 219 224 226 224 230 231 235 241 245 245 247 252 258 269 283 290 292 276 261 258 268 275 278 280 287 291 293 295 296 298 298 298 296 293 291 291 288 278
205 197 202 208 213 218 225 224 227 233 233 237 246 246 250 254 253 254 261 276 289 294 288 272 257 257 271 275 279 287 289 291 293 294 295 297 296 294 291 289 287 287 285
198 197 200 205 213 219 223 223 233 235 236 242 248 250 252 258 256 255 257 259 271 288 293 291 283 263 273 276 279 282 280 286 290 292 293 294 294 290 289 287 285 282 281
196 192 199 205 211 217 221 224 235 239 241 248 249 252 256 259 259 259 259 259 258 266 281 286 285 280 278 282 283 283 283 286 290 291 291 290 290 288 285 285 283 278 274
197 200 201 206 212 218 220 226 235 238 244 253 254 255 259 261 264 265 263 263 263 263 273 283 281 281 277 277 279 278 278 277 279 283 285 286 285 284 281 280 279 275 271
199 201 201 207 214 219 220 226 238 244 244 253 258 259 263 266 266 267 267 267 267 266 270 280 283 281 276 275 275 275 278 278 275 280 282 282 281 280 277 275 273 271 269
200 199 200 207 213 218 223 229 236 244 247 252 256 259 263 266 269 268 268 270 270 270 267 273 279 280 277 275 275 275 274 272 273 278 280 281 279 277 274 270 269 267 265
199 199 202 207 212 217 225 232 236 244 250 254 256 258 260 262 265 268 271 269 269 269 269 270 275 278 276 273 271 277 280 273 273 276 277 277 277 276 272 268 265 263 262
200 197 198 205 211 216 225 231 238 244 248 255 259 258 259 264 269 277 282 280 275 275 275 274 277 280 282 283 280 279 279 281 274 269 271 272 272 269 271 269 265 262 260
196 191 197 203 211 221 237 246 249 243 245 252 261 262 261 270 279 285 290 293 291 289 291 288 289 288 288 286 284 279 280 280 280 256 257 268 265 267 263 258 259 258 255
192 192 198 203 216 228 239 251 259 261 255 253 257 264 272 274 287 283 287 290 289 289 294 295 292 289 289 286 282 277 270 266 268 264 265 272 266 266 265 260 258 252 248
194 195 200 205 216 230 238 249 260 264 261 255 252 257 266 272 277 285 282 283 274 274 284 286 277 280 283 283 277 274 272 269 266 262 255 265 265 264 265 256 256 248 244
195 197 199 202 212 229 236 247 258 255 260 259 256 259 266 270 285 295 300 297 290 287 298 299 300 303 304 305 302 297 286 278 277 273 247 253 268 269 265 255 247 242 238
197 195 200 203 210 221 231 241 252 249 259 266 265 261 275 285 295 302 306 304 302 299 297 299 302 302 298 296 299 294 285 277 277 278 247 239 258 266 272 247 233 229 228
Height
1563 1562 1560 1558 1556 1554 1552 1549 1546 1543 1540 1538 1535 1532 1529 1526 1523 1520 1517 1515 1513 1510 1509 1507 1505 1503 1501 1498 1496 1493 1490 1487 1485 1484 1483 1482 1482 1482 1482 1483 1484 1485 1488
1559 1558 1556 1554 1552 1549 1546 1544 1541 1538 1535 1532 1530 1527 1524 1522 1519 1516 1512 1510 1507 1505 1503 1501 1500 1498 1496 1493 1490 1487 1483 1480 1477 1475 1473 1473 1473 1473 1473 1474 1475 1476 1478
1555 1553 1551 1549 1547 1544 1541 1539 1536 1533 1530 1527 1525 1522 1519 1516 1513 1510 1507 1504 1502 1499 1497 1495 1494 1492 1490 1487 1484 1480 1476 1473 1469 1467 1465 1463 1463 1463 1464 1465 1466 1467 1469
1550 1548 1546 1544 1541 1539 1537 1534 1532 1529 1526 1523 1520 1517 1514 1510 1507 1504 1501 1499 1496 1494 1492 1489 1487 1486 1483 1480 1477 1473 1469 1465 1461 1458 1456 1454 1453 1453 1454 1455 1456 1458 1460
1544 1543 1541 1539 1537 1534 1532 1530 1527 1524 1521 1518 1515 1511 1508 1505 1501 1498 1496 1493 1491 1489 1486 1484 1481 1478 1475 1473 1469 1466 1462 1457 1453 1450 1447 1444 1443 1443 1444 1445 1446 1449 1451
1539 1537 1536 1534 1532 1530 1528 1525 1523 1520 1517 1513 1509 1505 1502 1498 1495 1492 1490 1488 1486 1484 1481 1478 1474 1471 1467 1464 1461 1457 1453 1449 1445 1441 1437 1435 1433 1432 1433 1434 1436 1439 1441
1533 1532 1530 1529 1527 1525 1523 1521 1518 1516 1513 1509 1503 1497 1493 1490 1488 1485 1484 1482 1480 1478 1475 1471 1468 1464 1459 1456 1452 1448 1444 1441 1436 1432 1428 1426 1423 1422 1422 1423 1426 1428 1431
1527 1526 1525 1523 1521 1519 1518 1515 1513 1510 1508 1505 1500 1492 1486 1482 1479 1479 1477 1475 1473 1471 1468 1464 1460 1456 1452 1448 1443 1439 1436 1432 1428 1423 1419 1416 1414 1412 1412 1413 1415 1418 1421
1520 1520 1519 1517 1516 1514 1512 1510 1508 1505 1503 1501 1498 1495 1488 1480 1475 1469 1468 1466 1465 1463 1460 1456 1452 1448 1444 1440 1435 1431 1427 1424 1420 1415 1411 1407 1404 1403 1403 1403 1405 1408 1411
1513 1513 1512 1511 1509 1508 1506 1505 1503 1500 1497 1495 1493 1490 1488 1483 1476 1466 1460 1459 1457 1454 1451 1448 1444 1440 1436 1431 1427 1423 1419 1415 1412 1407 1403 1399 1395 1393 1393 1394 1395 1398 1401
1506 1505 1505 1504 1503 1501 1500 1498 1497 1495 1492 1489 1487 1484 1482 1479 1474 1469 1457 1450 1448 1446 1443 1439 1435 1431 1427 1422 1418 1414 1411 1408 1404 1400 1395 1390 1387 1385 1383 1384 1386 1388 1391
1498 1498 1497 1497 1496 1495 1493 1492 1490 1488 1486 1484 1481 1478 1476 1473 1468 1464 1456 1445 1438 1434 1433 1430 1426 1422 1418 1414 1410 1407 1403 1400 1396 1392 1387 1383 1379 1377 1375 1374 1375 1378 1381
1490 1490 1490 1489 1489 1488 1487 1485 1484 1482 1480 1477 1475 1472 1469 1466 1463 1459 1452 1442 1433 1425 1422 1419 1417 1414 1410 1406 1402 1398 1395 1391 1388 1384 1380 1376 1372 1369 1368 1366 1366 1368 1372
1482 1483 1482 1482 1481 1481 1480 1478 1476 1474 1472 1470 1467 1465 1461 1458 1456 1452 1447 1440 1428 1416 1412 1410 1408 1405 1402 1398 1394 1390 1386 1383 1379 1375 1372 1368 1365 1363 1361 1361 1360 1361 1363
1474 1474 1474 1474 1474 1473 1472 1471 1469 1467 1465 1462 1459 1457 1454 1450 1448 1444 1440 1435 1428 1415 1400 1400 1398 1395 1393 1389 1385 1382 1378 1374 1371 1367 1364 1361 1358 1356 1354 1354 1354 1355 1356
1465 1465 1465 1466 1466 1465 1464 1463 1461 1459 1457 1454 1452 1448 1445 1442 1439 1435 1431 1426 1421 1413 1397 1390 1389 1386 1384 1380 1377 1374 1370 1366 1362 1358 1355 1352 1350 1348 1348 1347 1347 1349 1351
1455 1456 1457 1457 1457 1457 1456 1455 1453 1451 1449 1446 1443 1440 1436 1434 1430 1426 1422 1417 1412 1406 1394 1383 1382 1378 1375 1371 1367 1364 1361 1356 1352 1348 1346 1344 1342 1341 1340 1340 1341 1342 1344
1445 1446 1447 1448 1448 1449 1448 1447 1445 1443 1440 1437 1435 1432 1428 1426 1422 1418 1413 1408 1403 1397 1390 1378 1373 1370 1366 1362 1358 1354 1351 1347 1343 1339 1337 1334 1333 1332 1332 1333 1333 1335 1337
1434 1436 1437 1438 1440 1440 1440 1439 1437 1435 1432 1429 1426 1423 1420 1418 1413 1409 1404 1399 1393 1388 1382 1373 1364 1361 1356 1353 1349 1345 1341 1337 1334 1330 1327 1324 1323 1322 1323 1324 1326 1328 1330
1423 1426 1428 1430 1431 1432 1432 1431 1429 1427 1424 1421 1418 1415 1412 1409 1405 1400 1395 1389 1384 1379 1373 1366 1357 1351 1347 1344 1341 1336 1331 1328 1324 1321 1318 1315 1313 1312 1313 1314 1317 1319 1322
1413 1416 1419 1421 1423 1423 1424 1423 1421 1419 1416 1413 1410 1407 1404 1401 1397 1394 1389 1383 1377 1371 1364 1357 1350 1344 1339 1336 1332 1328 1323 1318 1314 1312 1308 1305 1304 1302 1302 1304 1307 1310 1314
1404 1407 1410 1412 1414 1415 1416 1415 1413 1411 1408 1405 1402 1399 1396 1393 1390 1385 1381 1376 1371 1365 1358 1351 1344 1338 1332 1328 1323 1319 1315 1310 1305 1304 1302 1297 1296 1294 1294 1295 1298 1301 1305
1394 1398 1401 1404 1405 1407 1407 1407 1406 1404 1401 1398 1395 1392 1388 1385 1382 1377 1371 1366 1362 1357 1353 1346 1337 1329 1323 1319 1314 1309 1305 1301 1297 1296 1295 1289 1288 1286 1285 1286 1289 1293 1297
1384 1388 1392 1395 1397 1398 1399 1399 1398 1396 1393 1390 1388 1385 1381 1377 1373 1369 1363 1358 1353 1348 1343 1335 1329 1321 1315 1310 1305 1300 1296 1292 1289 1288 1287 1283 1280 1279 1278 1278 1281 1284 1289
1375 1379 1383 1386 1388 1390 1391 1391 1390 1388 1385 1383 1380 1378 1374 1370 1366 1362 1358 1352 1345 1339 1334 1328 1322 1315 1308 1301 1296 1292 1288 1285 1282 1280 1280 1277 1274 1273 1272 1271 1273 1277 1281
1365 1370 1374 1377 1379 1381 1383 1383 1383 1381 1378 1376 1373 1370 1368 1364 1360 1357 1353 1346 1338 1331 1325 1318 1312 1305 1298 1292 1288 1285 1281 1278 1276 1273 1272 1272 1270 1270 1267 1266 1268 1271 1275